Location: Evansville
(37.9747°N, 87.5558°W)
Time: 10:41:43
(UTC-05:00)

HTV-X1 - Visible Passes

Search period start: 13 May 2026 00:00
Search period end: 23 May 2026 00:00
Orbit: 373 x 383 km, 51.6° (Epoch: 12 May)

Date Brightness Start Highest point End Pass type
(mag) Time Alt. Az. Time Alt. Az. Time Alt. Az.
13 May ? 21:32:21 10° NNW 21:32:41 10° NNW 21:33:00 10° N visible
14 May ? 20:29:27 10° WNW 20:31:25 16° NNW 20:33:22 10° NNE visible
16 May ? 23:18:20 10° N 23:18:42 11° N 23:18:42 11° N visible
18 May ? 22:51:47 10° NNW 22:53:03 15° N 22:53:03 15° N visible
19 May ? 21:51:51 10° N 21:52:29 10° NNE 21:53:05 10° NNE visible
19 May ? 23:25:59 10° NW 23:26:16 12° NW 23:26:16 12° NW visible
20 May ? 22:25:17 10° NNW 22:27:24 21° NNE 22:27:24 21° NNE visible
21 May ? 21:24:52 10° N 21:26:28 13° NNE 21:28:03 10° NE visible
21 May ? 22:59:40 10° NW 23:00:36 18° NW 23:00:36 18° NW visible
22 May ? 21:58:48 10° NNW 22:01:37 32° NNE 22:01:45 32° NE visible
